Torna al catalogo

STARLINK-5637

AttivoComunicazioniVLEO
NORAD 55432·PAYLOAD·🇺🇸 United States

Lanciato Jan 31, 2023 da Vandenberg Space Force Base

Loading…

Prossimi Passaggi (prossime 24 ore)

TLE

AggiornatoSource: CelesTrak SupGP

Epoca: Sep 15, 2026, 02:33 UTC

1 55432C 23014AT  26258.10673611  .00074204  00000+0  62191-2 0  2582
2 55432  70.0017 346.8420 0003464 267.7734  41.2038 14.98289310    10

Traccia STARLINK-5637 in tempo reale con AllMySat

Download on the App Store